• Join FlightAware (Why Join?)
  • Login
  • US Flag 
03:32AM EST


 

Airport Tracker/Info


-or-


 

Live Flight TrackerFlight Track Log ✈ EJA929 ✈ 16-Sep-2013 ✈ KTEB - KBOS

Flight Track Log - Related Links

Times and Time Zones

All times are in EDT time to prevent confusion due to time zone crossing. See the EJA929 flight status page for this flight to view local times or setup timezone preferences in your user account.

Time Position Orientation Groundspeed Altitude Reporting Facility
EDT Latitude Longitude Course Direction KTS MPH feet Rate Location/Type
10:07AM 40.9000 -74.0333 311° West 193 222 2,700  Level New York TRACON
10:08AM 40.9333 -74.0833 311° West 227 261 5,900 1,700 Climbing New York TRACON
10:09AM 41.0000 -74.1333 330° Northwest 277 319 6,100 100 Climbing New York TRACON
10:10AM 41.0667 -74.1333 360° North 277 319 6,100 500 Level New York TRACON
10:11AM 41.1333 -74.1000 21° North 283 326 7,100 1,900 Climbing New York TRACON
10:12AM 41.1667 -74.0000 66° East 315 362 9,900 2,300 Climbing New York TRACON
10:13AM 41.2000 -73.8833 69° East 382 440 11,700 1,902 Climbing New York TRACON
10:15AM 41.2583 -73.6331 73° East 439 505 15,100 1,252 Climbing Boston Center
10:16AM 41.2994 -73.4681 72° East 455 524 15,100  Level Boston Center
10:17AM 41.3281 -73.2969 77° East 469 540 15,100  Level Boston Center
10:18AM 41.3500 -73.1425 79° East 474 545 15,100 -50 Level Boston Center
10:19AM 41.3781 -72.9547 79° East 468 539 15,000 -50 Descending Boston Center
10:20AM 41.3994 -72.8025 79° East 468 539 15,000  Level Boston Center
10:21AM 41.4250 -72.6172 80° East 468 539 15,000  Level Boston Center
10:22AM 41.4647 -72.4761 69° East 462 532 15,000 -50 Level Boston Center
10:23AM 41.5147 -72.3069 68° East 445 512 14,900 49 Descending Boston Center
10:24AM 41.5581 -72.1656 68° East 451 519 15,100 99 Climbing Boston Center
10:25AM 41.6075 -71.9903 69° East 451 519 15,100  Level Boston Center
10:26AM 41.6486 -71.8511 68° East 446 513 15,100  Level Boston Center
10:27AM 41.6975 -71.6783 69° East 448 516 15,100  Level Boston Center
10:28AM 41.7383 -71.5386 69° East 448 516 15,100 -246 Level Boston Center
10:29AM 41.7867 -71.3681 69° East 447 514 14,600 -1,317 Descending Boston Center
10:30AM 41.8250 -71.2283 70° East 442 509 12,400 -1,780 Descending Boston Center
10:31AM 41.8672 -71.0908 68° East 383 441 11,100 -832 Descending Boston Center
10:32AM 41.9000 -71.0000 64° Northeast 346 398 11,000 -52 Descending KA90
10:33AM 41.9667 -70.8667 56° Northeast 348 400 11,000 -48 Level KA90
10:34AM 42.0000 -70.7833 62° Northeast 334 384 10,900 -1,000 Descending KA90
10:35AM 42.0667 -70.6667 52° Northeast 328 377 9,000 -1,650 Descending KA90
10:36AM 42.1333 -70.6167 29° Northeast 296 341 7,600 -1,474 Descending KA90
10:37AM 42.2000 -70.6333 350° North 264 304 6,200 -1,350 Descending KA90
10:38AM 42.2833 -70.6500 352° North 254 292 4,900 -1,289 Descending KA90
10:39AM 42.3500 -70.6833 340° North 260 299 3,600 -992 Descending KA90
10:40AM 42.4000 -70.7333 324° Northwest 205 236 2,900 -429 Descending KA90
10:41AM 42.4000 -70.8000 270° West 170 196 2,700 -524 Descending KA90
10:42AM 42.3833 -70.8667 251° West 172 198 1,800 -850 Descending KA90
10:43AM 42.3667 -70.9167 246° West 126 145 1,000 -684 Descending KA90
10:44AM 42.3667 -70.9500 270° West 118 136 500 -556 Descending KA90
10:46AM 42.3500 -71.0000 260° West  Level FlightAware Approximate
10:53AM 42.3630 -71.0064 260° West  Level Estimated